Location: Unspecified
(44.4377°N, 88.0525°W)
Time: 11:11:33
(UTC-05:00)

Cosmos 2058 - Visible Passes

Search period start: 01 August 2015 00:00
Search period end: 11 August 2015 00:00
Orbit: 565 x 590 km, 82.5° (Epoch: 01 August)

Date Brightness Start Highest point End Pass type
(mag) Time Alt. Az. Time Alt. Az. Time Alt. Az.
01 Aug 2.8 04:11:05 10° N 04:15:14 82° W 04:19:22 10° S visible
02 Aug 5.8 02:40:14 10° NE 02:41:59 13° ENE 02:43:54 10° E visible
02 Aug 2.9 04:15:25 10° NNW 04:19:29 59° W 04:23:33 10° S visible
03 Aug 5.6 02:43:48 10° NNE 02:46:25 17° ENE 02:49:10 10° ESE visible
03 Aug 3.3 04:19:48 10° NNW 04:23:44 43° W 04:27:05 13° SSW visible
04 Aug 5.2 02:47:39 10° NNE 02:50:50 22° ENE 02:54:07 10° ESE visible
04 Aug 3.7 04:24:15 10° NNW 04:27:57 31° W 04:30:34 16° SW visible
05 Aug 4.7 02:51:37 10° NNE 02:55:13 28° ENE 02:57:54 15° SE visible
05 Aug 4.1 04:28:48 10° NW 04:32:09 24° W 04:34:08 17° SW visible
06 Aug 4.2 02:55:42 10° N 02:59:34 38° ENE 03:01:31 24° SE visible
06 Aug 4.5 04:33:28 10° NW 04:36:20 18° W 04:37:45 15° WSW visible
07 Aug 3.6 02:59:50 10° N 03:03:54 52° ENE 03:05:11 36° SE visible
07 Aug 4.8 04:38:23 10° NW 04:40:30 13° W 04:41:26 12° W visible
08 Aug 3.0 03:04:02 10° N 03:08:11 72° E 03:08:55 56° SE visible
09 Aug 2.7 03:08:17 10° N 03:12:27 84° W 03:12:40 79° SSW visible
10 Aug 5.6 01:37:28 10° NE 01:39:10 12° ENE 01:40:13 12° E visible
10 Aug 3.0 03:12:35 10° NNW 03:16:28 59° WNW 03:16:28 59° WNW visible
